When you browse on this site, cookies collect data to enhance your experience and personalize the content and advertising you see.
Visit our Privacy Policy to learn more. By continuing to use the site, you agree to this use of cookies and data.
  • en Suisse
  • Liste des pays
  • À 7 jours
  • Température de l'eau
  • Carte météo
  • Widgets météo
  • user-avatar
    Se connecter

    Météo par heure à Montpellier

    Ce jour, 6 Juin, Samedi

    Heure Température Précipitation Vent Pression Humidité
    00:00 +16°C° 0 mm 5 m/s 755 mmHg 76%
    01:00 +16°C° 0 mm 5 m/s 755 mmHg 77%
    02:00 +16°C° 0 mm 5 m/s 755 mmHg 78%
    03:00 +15°C° 0 mm 4 m/s 755 mmHg 78%
    04:00 +17°C° 0 mm 4 m/s 755 mmHg 76%
    05:00 +18°C° 0 mm 4 m/s 754 mmHg 73%
    06:00 +18°C° 0 mm 4 m/s 754 mmHg 71%
    07:00 +20°C° 0 mm 4 m/s 754 mmHg 65%
    08:00 +22°C° 0 mm 4 m/s 754 mmHg 59%
    09:00 +24°C° 0 mm 3 m/s 754 mmHg 52%
    10:00 +25°C° 0 mm 4 m/s 754 mmHg 50%
    11:00 +26°C° 0 mm 4 m/s 754 mmHg 48%
    12:00 +27°C° 0 mm 5 m/s 754 mmHg 46%
    13:00 +27°C° 0 mm 5 m/s 753 mmHg 47%
    14:00 +27°C° 0 mm 6 m/s 753 mmHg 48%
    15:00 +27°C° 0 mm 6 m/s 753 mmHg 49%
    16:00 +26°C° 0 mm 6 m/s 752 mmHg 55%
    17:00 +23°C° 0 mm 5 m/s 752 mmHg 61%
    18:00 +22°C° 0 mm 5 m/s 752 mmHg 68%
    19:00 +21°C° 0.5 mm 5 m/s 752 mmHg 73%
    20:00 +20°C° 0.5 mm 4 m/s 753 mmHg 79%
    21:00 +19°C° 0.5 mm 4 m/s 753 mmHg 84%
    22:00 +19°C° 0.6 mm 3 m/s 753 mmHg 85%
    23:00 +19°C° 0.6 mm 3 m/s 753 mmHg 87%

    Demain, 7 Juin, Dimanche

    Heure Température Précipitation Vent Pression Humidité
    00:00 +18°C° 0.6 mm 2 m/s 752 mmHg 88%
    01:00 +18°C° 0.6 mm 2 m/s 752 mmHg 88%
    02:00 +18°C° 0.6 mm 2 m/s 752 mmHg 88%
    03:00 +18°C° 0.6 mm 2 m/s 752 mmHg 89%
    04:00 +19°C° 0.1 mm 1 m/s 752 mmHg 87%
    05:00 +19°C° 0.1 mm 1 m/s 752 mmHg 86%
    06:00 +19°C° 0.1 mm 1 m/s 752 mmHg 84%
    07:00 +18°C° 0.2 mm 2 m/s 753 mmHg 82%
    08:00 +18°C° 0.2 mm 3 m/s 753 mmHg 80%
    09:00 +18°C° 0.2 mm 4 m/s 753 mmHg 78%
    10:00 +19°C° 0 mm 4 m/s 753 mmHg 72%
    11:00 +20°C° 0 mm 3 m/s 753 mmHg 65%
    12:00 +22°C° 0 mm 3 m/s 753 mmHg 58%
    13:00 +22°C° 0.1 mm 4 m/s 753 mmHg 54%
    14:00 +22°C° 0.1 mm 4 m/s 753 mmHg 50%
    15:00 +23°C° 0.1 mm 5 m/s 753 mmHg 47%
    16:00 +22°C° 0.1 mm 5 m/s 753 mmHg 50%
    17:00 +22°C° 0.1 mm 5 m/s 753 mmHg 53%
    18:00 +21°C° 0.1 mm 5 m/s 753 mmHg 56%
    19:00 +20°C° 0 mm 5 m/s 753 mmHg 59%
    20:00 +17°C° 0 mm 5 m/s 754 mmHg 61%
    21:00 +16°C° 0 mm 5 m/s 754 mmHg 63%
    22:00 +15°C° 0 mm 5 m/s 754 mmHg 64%
    23:00 +15°C° 0 mm 5 m/s 755 mmHg 65%

    Après-demain, 8 Juin, Lundi

    Heure Température Précipitation Vent Pression Humidité
    00:00 +14°C° 0 mm 6 m/s 755 mmHg 65%
    01:00 +14°C° 0 mm 5 m/s 755 mmHg 66%
    02:00 +14°C° 0 mm 5 m/s 755 mmHg 66%
    03:00 +14°C° 0 mm 5 m/s 755 mmHg 66%
    04:00 +14°C° 0 mm 5 m/s 755 mmHg 65%
    05:00 +15°C° 0 mm 4 m/s 754 mmHg 64%
    06:00 +15°C° 0 mm 4 m/s 754 mmHg 62%
    07:00 +18°C° 0 mm 4 m/s 755 mmHg 55%
    08:00 +20°C° 0 mm 4 m/s 755 mmHg 47%
    09:00 +22°C° 0 mm 5 m/s 755 mmHg 40%
    10:00 +23°C° 0 mm 4 m/s 755 mmHg 37%
    11:00 +25°C° 0 mm 3 m/s 754 mmHg 35%
    12:00 +26°C° 0 mm 3 m/s 754 mmHg 33%
    13:00 +26°C° 0 mm 3 m/s 754 mmHg 35%
    14:00 +25°C° 0 mm 3 m/s 754 mmHg 37%
    15:00 +25°C° 0 mm 3 m/s 753 mmHg 39%
    16:00 +23°C° 0 mm 4 m/s 753 mmHg 44%
    17:00 +23°C° 0 mm 5 m/s 753 mmHg 49%
    18:00 +22°C° 0 mm 6 m/s 753 mmHg 54%
    19:00 +21°C° 0 mm 5 m/s 754 mmHg 56%
    20:00 +20°C° 0 mm 5 m/s 755 mmHg 57%
    21:00 +19°C° 0 mm 5 m/s 755 mmHg 59%
    22:00 +17°C° 0 mm 5 m/s 755 mmHg 61%
    23:00 +17°C° 0 mm 5 m/s 755 mmHg 64%

    9 Juin, Mardi

    Heure Température Précipitation Vent Pression Humidité
    00:00 +16°C° 0 mm 5 m/s 755 mmHg 67%
    01:00 +16°C° 0 mm 5 m/s 755 mmHg 68%
    02:00 +15°C° 0 mm 5 m/s 755 mmHg 69%
    03:00 +15°C° 0 mm 5 m/s 755 mmHg 70%
    04:00 +15°C° 0 mm 5 m/s 755 mmHg 69%
    05:00 +16°C° 0 mm 6 m/s 756 mmHg 67%
    06:00 +16°C° 0 mm 6 m/s 756 mmHg 66%
    07:00 +19°C° 0 mm 6 m/s 756 mmHg 62%
    08:00 +20°C° 0 mm 5 m/s 756 mmHg 57%
    09:00 +22°C° 0 mm 5 m/s 756 mmHg 52%
    10:00 +22°C° 0.3 mm 5 m/s 756 mmHg 52%
    11:00 +23°C° 0.3 mm 5 m/s 756 mmHg 52%
    12:00 +23°C° 0.3 mm 5 m/s 756 mmHg 52%
    13:00 +23°C° 0.5 mm 5 m/s 756 mmHg 54%
    14:00 +22°C° 0.5 mm 6 m/s 756 mmHg 56%
    15:00 +22°C° 0.5 mm 6 m/s 755 mmHg 57%
    16:00 +22°C° 0.1 mm 5 m/s 756 mmHg 59%
    17:00 +21°C° 0.1 mm 5 m/s 756 mmHg 61%
    18:00 +21°C° 0.1 mm 5 m/s 756 mmHg 62%
    19:00 +20°C° 0.1 mm 5 m/s 756 mmHg 63%
    20:00 +19°C° 0.1 mm 5 m/s 757 mmHg 64%
    21:00 +17°C° 0.1 mm 5 m/s 757 mmHg 64%
    22:00 +17°C° 0 mm 5 m/s 757 mmHg 66%
    23:00 +17°C° 0 mm 6 m/s 757 mmHg 68%

    10 Juin, Mercredi

    Heure Température Précipitation Vent Pression Humidité
    00:00 +16°C° 0 mm 6 m/s 757 mmHg 70%
    01:00 +16°C° 0 mm 6 m/s 757 mmHg 70%
    02:00 +16°C° 0 mm 6 m/s 757 mmHg 70%
    03:00 +16°C° 0 mm 6 m/s 757 mmHg 70%
    04:00 +16°C° 0 mm 5 m/s 757 mmHg 69%
    05:00 +16°C° 0 mm 5 m/s 757 mmHg 69%
    06:00 +17°C° 0 mm 5 m/s 757 mmHg 68%
    07:00 +19°C° 0 mm 5 m/s 758 mmHg 65%
    08:00 +20°C° 0 mm 5 m/s 758 mmHg 63%
    09:00 +21°C° 0 mm 6 m/s 758 mmHg 60%
    10:00 +21°C° 0.1 mm 6 m/s 758 mmHg 58%
    11:00 +22°C° 0.1 mm 6 m/s 758 mmHg 55%
    12:00 +23°C° 0.1 mm 6 m/s 758 mmHg 53%
    13:00 +23°C° 0.1 mm 6 m/s 758 mmHg 52%
    14:00 +25°C° 0.1 mm 5 m/s 758 mmHg 50%
    15:00 +25°C° 0.1 mm 5 m/s 757 mmHg 48%
    16:00 +25°C° 0.1 mm 5 m/s 757 mmHg 52%
    17:00 +23°C° 0.1 mm 4 m/s 758 mmHg 56%
    18:00 +22°C° 0.1 mm 4 m/s 758 mmHg 60%
    19:00 +21°C° 0 mm 4 m/s 758 mmHg 61%
    20:00 +20°C° 0 mm 5 m/s 758 mmHg 63%
    21:00 +19°C° 0 mm 5 m/s 758 mmHg 64%
    22:00 +19°C° 0 mm 5 m/s 758 mmHg 64%
    23:00 +18°C° 0 mm 4 m/s 758 mmHg 65%

    11 Juin, Jeudi

    Heure Température Précipitation Vent Pression Humidité
    00:00 +18°C° 0 mm 4 m/s 758 mmHg 65%
    01:00 +18°C° 0 mm 4 m/s 758 mmHg 66%
    02:00 +18°C° 0 mm 4 m/s 758 mmHg 68%
    03:00 +18°C° 0 mm 4 m/s 757 mmHg 69%
    04:00 +18°C° 0 mm 4 m/s 757 mmHg 70%
    05:00 +18°C° 0 mm 4 m/s 757 mmHg 70%
    06:00 +18°C° 0 mm 4 m/s 757 mmHg 71%
    07:00 +19°C° 0.1 mm 4 m/s 757 mmHg 70%
    08:00 +19°C° 0.1 mm 5 m/s 757 mmHg 69%
    09:00 +20°C° 0.1 mm 5 m/s 757 mmHg 68%
    10:00 +21°C° 0.1 mm 5 m/s 757 mmHg 65%
    11:00 +22°C° 0.1 mm 5 m/s 757 mmHg 61%
    12:00 +23°C° 0.1 mm 4 m/s 757 mmHg 57%
    13:00 +25°C° 0.1 mm 4 m/s 756 mmHg 56%
    14:00 +25°C° 0.1 mm 4 m/s 756 mmHg 54%
    15:00 +26°C° 0.1 mm 4 m/s 756 mmHg 53%
    16:00 +25°C° 0.1 mm 4 m/s 755 mmHg 56%
    17:00 +25°C° 0.1 mm 4 m/s 755 mmHg 60%
    18:00 +23°C° 0.1 mm 4 m/s 755 mmHg 63%
    19:00 +22°C° 0 mm 4 m/s 755 mmHg 66%
    20:00 +21°C° 0 mm 4 m/s 755 mmHg 69%
    21:00 +20°C° 0 mm 4 m/s 755 mmHg 72%
    22:00 +19°C° 0 mm 4 m/s 755 mmHg 72%
    23:00 +19°C° 0 mm 4 m/s 755 mmHg 72%
    Voir plus